| time (UTC) | temp C | wind direction | speed KPH | gust KPH | rain 1hr cm | rain 24hr cm | rain mn cm | humidity % | barometer mb |
| 20260503000809 | 33 | 46 | 1.6 | 8.0 | 0.00 | 0.00 | 0.00 | 100 | 1019.3 |
| 20260503000311 | 33 | 22 | 0.0 | 6.4 | 0.00 | 0.00 | 0.00 | 100 | 1019.3 |
| 20260502235809 | 33 | 274 | 0.0 | 3.2 | 0.00 | 0.00 | 0.00 | 100 | 1019.2 |
| 20260502235258 | 33 | 274 | 0.0 | 8.0 | 0.00 | 0.03 | 0.00 | 100 | 1019.2 |
| 20260502234742 | 34 | 274 | 0.0 | 8.0 | 0.00 | 0.03 | 0.00 | 100 | 1019.3 |
| 20260502234243 | 34 | 120 | 3.2 | 11.3 | 0.00 | 0.03 | 0.00 | 100 | 1019.3 |
| 20260502234010 | 34 | 2 | 3.2 | 11.3 | 0.00 | 0.03 | 0.00 | 100 | 1019.2 |
| 20260502233239 | 34 | 326 | 0.0 | 8.0 | 0.00 | 0.03 | 0.00 | 100 | 1019.2 |
| 20260502232740 | 34 | 319 | 1.6 | 8.0 | 0.00 | 0.03 | 0.00 | 100 | 1019.2 |
| 20260502232234 | 34 | 354 | 0.0 | 9.7 | 0.00 | 0.03 | 0.00 | 100 | 1019.2 |
| 20260502231731 | 34 | 354 | 4.8 | 9.7 | 0.00 | 0.03 | 0.00 | 100 | 1019.2 |
| 20260502231229 | 34 | 32 | 0.0 | 16.1 | 0.00 | 0.03 | 0.00 | 100 | 1019.1 |
| 20260502230717 | 34 | 16 | 0.0 | 16.1 | 0.00 | 0.03 | 0.00 | 100 | 1019.2 |
| 20260502230216 | 34 | 347 | 1.6 | 14.5 | 0.00 | 0.03 | 0.00 | 100 | 1019.1 |
| 20260502225715 | 34 | 358 | 3.2 | 14.5 | 0.00 | 0.03 | 0.00 | 100 | 1019.2 |
| 20260502225212 | 34 | 130 | 1.6 | 8.0 | 0.00 | 0.03 | 0.00 | 100 | 1019.2 |
| 20260502224943 | 34 | 281 | 1.6 | 14.5 | 0.00 | 0.03 | 0.00 | 100 | 1019.1 |
| 20260502224441 | 34 | 97 | 6.4 | 14.5 | 0.00 | 0.03 | 0.00 | 100 | 1019.2 |
| 20260502223943 | 34 | 19 | 0.0 | 14.5 | 0.00 | 0.03 | 0.00 | 100 | 1019.2 |
| 20260502223157 | 34 | 19 | 0.0 | 14.5 | 0.00 | 0.03 | 0.00 | 100 | 1019.2 |
| 20260502222656 | 34 | 49 | 0.0 | 19.3 | 0.00 | 0.05 | 0.00 | 100 | 1019.3 |
| 20260502222157 | 34 | 315 | 8.0 | 19.3 | 0.00 | 0.05 | 0.00 | 100 | 1019.3 |
| 20260502221657 | 34 | 358 | 1.6 | 14.5 | 0.00 | 0.05 | 0.00 | 100 | 1019.4 |
| 20260502221158 | 34 | 337 | 0.0 | 12.9 | 0.00 | 0.05 | 0.00 | 100 | 1019.3 |
| 20260502220624 | 35 | 59 | 3.2 | 16.1 | 0.00 | 0.05 | 0.00 | 100 | 1019.4 |
| 20260502220115 | 35 | 358 | 3.2 | 14.5 | 0.00 | 0.08 | 0.00 | 100 | 1019.4 |
| 20260502215616 | 34 | 53 | 8.0 | 12.9 | 0.00 | 0.08 | 0.00 | 100 | 1019.4 |
| 20260502215115 | 35 | 47 | 1.6 | 16.1 | 0.00 | 0.10 | 0.00 | 100 | 1019.4 |
| 20260502214601 | 34 | 81 | 3.2 | 17.7 | 0.00 | 0.13 | 0.00 | 100 | 1019.5 |
| 20260502214059 | 35 | 59 | 8.0 | 17.7 | 0.00 | 0.15 | 0.00 | 100 | 1019.5 |
| 20260502213559 | 35 | 43 | 0.0 | 14.5 | 0.00 | 0.18 | 0.00 | 100 | 1019.5 |
| 20260502213053 | 35 | 347 | 0.0 | 14.5 | 0.00 | 0.23 | 0.00 | 100 | 1019.6 |
| 20260502212543 | 35 | 298 | 3.2 | 16.1 | 0.00 | 0.25 | 0.00 | 100 | 1019.7 |
| 20260502212043 | 35 | 21 | 3.2 | 16.1 | 0.00 | 0.28 | 0.00 | 100 | 1019.8 |
| 20260502211542 | 35 | 52 | 4.8 | 16.1 | 0.00 | 0.30 | 0.00 | 100 | 1019.8 |
| 20260502211042 | 35 | 66 | 1.6 | 14.5 | 0.00 | 0.30 | 0.00 | 100 | 1019.8 |
| 20260502210813 | 35 | 54 | 6.4 | 11.3 | 0.00 | 0.30 | 0.00 | 100 | 1019.9 |
| 20260502210042 | 35 | 94 | 0.0 | 17.7 | 0.00 | 0.30 | 0.00 | 100 | 1020.0 |
| 20260502205541 | 36 | 81 | 4.8 | 17.7 | 0.00 | 0.30 | 0.00 | 100 | 1020.2 |
| 20260502205042 | 36 | 334 | 4.8 | 16.1 | 0.00 | 0.30 | 0.00 | 100 | 1020.3 |
| 20260502204542 | 36 | 88 | 6.4 | 12.9 | 0.00 | 0.30 | 0.00 | 100 | 1020.4 |
| 20260502204040 | 35 | 319 | 6.4 | 12.9 | 0.00 | 0.30 | 0.00 | 100 | 1020.3 |
| 20260502203540 | 35 | 53 | 4.8 | 17.7 | 0.00 | 0.30 | 0.00 | 100 | 1020.4 |
| 20260502203039 | 35 | 358 | 6.4 | 20.9 | 0.00 | 0.30 | 0.00 | 100 | 1020.4 |
| 20260502202539 | 35 | 322 | 9.7 | 20.9 | 0.00 | 0.30 | 0.00 | 100 | 1020.5 |
| 20260502202040 | 35 | 23 | 8.0 | 16.1 | 0.00 | 0.30 | 0.00 | 100 | 1020.6 |
| 20260502201540 | 36 | 351 | 4.8 | 12.9 | 0.00 | 0.30 | 0.00 | 100 | 1020.6 |
| 20260502201311 | 35 | 68 | 6.4 | 12.9 | 0.00 | 0.30 | 0.00 | 100 | 1020.7 |
| 20260502200540 | 35 | 7 | 6.4 | 14.5 | 0.00 | 0.30 | 0.00 | 100 | 1020.7 |
| 20260502200040 | 35 | 14 | 0.0 | 14.5 | 0.00 | 0.33 | 0.00 | 100 | 1020.7 |
| 20260502195538 | 35 | 12 | 6.4 | 16.1 | 0.00 | 0.33 | 0.00 | 100 | 1020.7 |
| 20260502195038 | 35 | 8 | 4.8 | 17.7 | 0.00 | 0.33 | 0.00 | 100 | 1020.8 |
| 20260502194806 | 35 | 21 | 6.4 | 17.7 | 0.00 | 0.33 | 0.00 | 100 | 1020.7 |
| 20260502194035 | 35 | 300 | 8.0 | 17.7 | 0.00 | 0.33 | 0.00 | 100 | 1020.7 |
| 20260502193533 | 34 | 106 | 6.4 | 16.1 | 0.00 | 0.36 | 0.00 | 100 | 1020.7 |
| 20260502193032 | 35 | 33 | 3.2 | 20.9 | 0.00 | 0.38 | 0.00 | 100 | 1020.8 |
| 20260502192529 | 35 | 30 | 3.2 | 20.9 | 0.00 | 0.41 | 0.00 | 100 | 1020.9 |
| 20260502192012 | 35 | 8 | 3.2 | 9.7 | 0.00 | 0.43 | 0.00 | 100 | 1020.9 |
| 20260502191512 | 35 | 43 | 0.0 | 14.5 | 0.00 | 0.46 | 0.00 | 100 | 1020.8 |
| 20260502190957 | 34 | 350 | 3.2 | 14.5 | 0.00 | 0.46 | 0.00 | 100 | 1020.9 |
| 20260502190458 | 34 | 67 | 6.4 | 19.3 | 0.00 | 0.46 | 0.00 | 100 | 1020.9 |
| 20260502185956 | 34 | 326 | 11.3 | 19.3 | 0.00 | 0.46 | 0.00 | 100 | 1020.9 |
| 20260502185727 | 34 | 36 | 4.8 | 14.5 | 0.00 | 0.46 | 0.00 | 100 | 1021.1 |
| 20260502184944 | 34 | 7 | 9.7 | 16.1 | 0.00 | 0.46 | 0.00 | 100 | 1021.1 |
| 20260502184444 | 33 | 74 | 6.4 | 19.3 | 0.00 | 0.46 | 0.00 | 100 | 1021.2 |
| 20260502183944 | 33 | 9 | 9.7 | 19.3 | 0.00 | 0.46 | 0.00 | 100 | 1021.4 |
| 20260502183444 | 33 | 32 | 9.7 | 16.1 | 0.00 | 0.46 | 0.00 | 100 | 1021.4 |
| 20260502182945 | 33 | 30 | 9.7 | 16.1 | 0.00 | 0.46 | 0.00 | 100 | 1021.5 |
| 20260502182714 | 33 | 324 | 6.4 | 14.5 | 0.00 | 0.46 | 0.00 | 100 | 1021.6 |
| 20260502181943 | 33 | 16 | 0.0 | 16.1 | 0.00 | 0.48 | 0.00 | 100 | 1021.7 |
| 20260502181440 | 33 | 358 | 8.0 | 17.7 | 0.00 | 0.53 | 0.00 | 100 | 1021.7 |
| 20260502180936 | 33 | 59 | 0.0 | 17.7 | 0.00 | 0.61 | 0.00 | 100 | 1021.9 |
| 20260502180418 | 33 | 21 | 3.2 | 14.5 | 0.00 | 0.81 | 0.00 | 100 | 1022.0 |
| 20260502170350 | 32 | 49 | 1.6 | 12.9 | 0.00 | 0.94 | 0.00 | 100 | 1022.7 |
| 20260502170115 | 32 | 78 | 0.0 | 16.1 | 0.00 | 0.94 | 0.00 | 100 | 1022.7 |
| 20260502164339 | 31 | 327 | 6.4 | 17.7 | 0.00 | 0.94 | 0.00 | 100 | 1022.7 |
| 20260502163839 | 32 | 327 | 8.0 | 17.7 | 0.00 | 0.94 | 0.00 | 100 | 1022.7 |
| 20260502163338 | 31 | 101 | 4.8 | 16.1 | 0.00 | 0.94 | 0.00 | 100 | 1022.7 |
| 20260502163106 | 31 | 81 | 3.2 | 17.7 | 0.00 | 0.94 | 0.00 | 100 | 1022.7 |
| 20260502162337 | 31 | 345 | 8.0 | 22.5 | 0.00 | 0.94 | 0.00 | 100 | 1022.7 |
| 20260502162104 | 31 | 15 | 3.2 | 22.5 | 0.00 | 0.94 | 0.00 | 100 | 1022.7 |
| 20260502161331 | 30 | 327 | 9.7 | 19.3 | 0.00 | 0.94 | 0.00 | 100 | 1022.8 |
| 20260502161102 | 30 | 337 | 8.0 | 12.9 | 0.00 | 0.94 | 0.00 | 100 | 1022.8 |
| 20260502160937 | 31 | 351 | 0.0 | 14.5 | 0.00 | 0.94 | 0.00 | 100 | 1022.8 |
| 20260502152312 | 30 | 15 | 0.0 | 12.9 | 0.00 | 1.04 | 0.00 | 100 | 1022.8 |
| 20260502151812 | 30 | 348 | 6.4 | 14.5 | 0.00 | 1.04 | 0.00 | 100 | 1022.7 |
| 20260502151312 | 30 | 37 | 9.7 | 14.5 | 0.00 | 1.04 | 0.00 | 100 | 1022.7 |
| 20260502150809 | 29 | 319 | 9.7 | 12.9 | 0.00 | 1.07 | 0.00 | 100 | 1022.7 |
| 20260502150310 | 29 | 343 | 6.4 | 12.9 | 0.00 | 1.07 | 0.00 | 100 | 1022.6 |
| 20260502130554 | 26 | 303 | 0.0 | 0.0 | 0.00 | 1.63 | 0.00 | 1 | 1021.6 |
| 20260502123529 | 25 | 303 | 0.0 | 3.2 | 0.00 | 1.65 | 0.00 | 45 | 1021.1 |
| 20260502123016 | 25 | 303 | 0.0 | 4.8 | 0.00 | 1.68 | 0.00 | 66 | 1021.1 |
| 20260502122511 | 25 | 303 | 0.0 | 4.8 | 0.00 | 1.70 | 0.00 | 88 | 1021.1 |
| 20260502122010 | 25 | 352 | 0.0 | 0.0 | 0.00 | 1.70 | 0.00 | 100 | 1020.9 |
| 20260502121503 | 25 | 352 | 0.0 | 0.0 | 0.00 | 1.70 | 0.00 | 100 | 1020.7 |
| 20260502120957 | 25 | 352 | 0.0 | 0.0 | 0.00 | 1.70 | 0.00 | 100 | 1020.7 |
| 20260502120450 | 25 | 352 | 0.0 | 0.0 | 0.00 | 1.73 | 0.00 | 100 | 1020.6 |
| 20260502115432 | 25 | 352 | 0.0 | 0.0 | 0.00 | 1.85 | 0.00 | 100 | 1020.3 |
| 20260502114929 | 25 | 352 | 0.0 | 0.0 | 0.00 | 2.01 | 0.00 | 100 | 1020.3 |
| 20260502114923 | 24 | 352 | 0.0 | 0.0 | 0.00 | 2.06 | 0.00 | 96 | 1020.3 |
| 20260502113922 | 24 | 352 | 0.0 | 0.0 | 0.00 | 2.08 | 0.00 | 92 | 1020.2 |
| 20260502113411 | 24 | 352 | 0.0 | 0.0 | 0.00 | 2.11 | 0.00 | 87 | 1020.1 |
| 20260502113136 | 24 | 352 | 0.0 | 0.0 | 0.00 | 2.11 | 0.00 | 76 | 1020.1 |
| 20260502112402 | 25 | 352 | 0.0 | 0.0 | 0.00 | 2.13 | 0.00 | 68 | 1020.1 |
| 20260502111902 | 24 | 352 | 0.0 | 0.0 | 0.00 | 2.16 | 0.00 | 55 | 1019.9 |
| 20260502111352 | 24 | 352 | 0.0 | 0.0 | 0.00 | 2.18 | 0.00 | 52 | 1019.9 |
| 20260502110853 | 25 | 352 | 0.0 | 0.0 | 0.00 | 2.24 | 0.00 | 48 | 1019.9 |
| 20260502110344 | 24 | 352 | 0.0 | 0.0 | 0.00 | 2.26 | 0.00 | 39 | 1020.0 |
| 20260502105839 | 24 | 352 | 0.0 | 0.0 | 0.00 | 2.26 | 0.00 | 29 | 1019.9 |
| 20260502105333 | 24 | 352 | 0.0 | 0.0 | 0.00 | 2.26 | 0.00 | 21 | 1019.8 |
| 20260502104828 | 24 | 352 | 0.0 | 0.0 | 0.00 | 2.29 | 0.00 | 18 | 1019.7 |
| 20260502104329 | 24 | 352 | 0.0 | 0.0 | 0.00 | 2.31 | 0.00 | 16 | 1019.6 |
| 20260502103812 | 25 | 352 | 0.0 | 0.0 | 0.00 | 2.36 | 0.00 | 6 | 1019.5 |
| 20260502103303 | 25 | 352 | 0.0 | 0.0 | 0.00 | 2.41 | 0.00 | 5 | 1019.3 |
| 20260502102758 | 25 | 352 | 0.0 | 0.0 | 0.00 | 2.44 | 0.00 | 5 | 1019.2 |
| 20260502102238 | 25 | 352 | 0.0 | 0.0 | 0.00 | 2.51 | 0.00 | 4 | 1019.2 |
| 20260502101729 | 25 | 352 | 0.0 | 0.0 | 0.00 | 2.57 | 0.00 | 3 | 1019.0 |
| 20260502101231 | 25 | 352 | 0.0 | 0.0 | 0.00 | 2.64 | 0.00 | 3 | 1019.0 |
| 20260502100727 | 25 | 352 | 0.0 | 0.0 | 0.00 | 2.67 | 0.00 | 3 | 1018.9 |
| 20260502100226 | 25 | 352 | 0.0 | 0.0 | 0.00 | 2.69 | 0.00 | 1 | 1018.8 |
| 20260502091524 | 25 | 348 | 0.0 | 0.0 | 0.00 | 2.84 | 0.00 | 100 | 1018.2 |
| 20260502091021 | 25 | 348 | 0.0 | 0.0 | 0.00 | 2.90 | 0.00 | 100 | 1018.2 |
| 20260502090513 | 25 | 348 | 0.0 | 0.0 | 0.00 | 2.95 | 0.00 | 1 | 1018.2 |
| 20260502071144 | 25 | 309 | 1.6 | 6.4 | 0.00 | 3.05 | 0.00 | 18 | 1018.0 |
| 20260502070628 | 25 | 19 | 0.0 | 6.4 | 0.00 | 3.05 | 0.00 | 19 | 1017.9 |
| 20260502070126 | 25 | 352 | 0.0 | 6.4 | 0.00 | 3.05 | 0.00 | 19 | 1017.9 |
| 20260502065623 | 25 | 358 | 0.0 | 4.8 | 0.00 | 3.05 | 0.00 | 21 | 1017.9 |
| 20260502065108 | 25 | 354 | 0.0 | 0.0 | 0.00 | 3.05 | 0.00 | 29 | 1017.8 |
| 20260502064837 | 25 | 354 | 0.0 | 0.0 | 0.00 | 3.05 | 0.00 | 31 | 1017.8 |
| 20260502064103 | 25 | 354 | 0.0 | 0.0 | 0.00 | 3.05 | 0.00 | 36 | 1017.8 |
| 20260502063827 | 25 | 354 | 0.0 | 0.0 | 0.00 | 3.05 | 0.00 | 45 | 1017.9 |
| 20260502063052 | 25 | 354 | 0.0 | 0.0 | 0.00 | 3.05 | 0.00 | 45 | 1017.9 |
| 20260502062539 | 25 | 354 | 0.0 | 0.0 | 0.00 | 3.05 | 0.00 | 44 | 1018.0 |
| 20260502062038 | 25 | 354 | 0.0 | 0.0 | 0.00 | 3.05 | 0.00 | 37 | 1018.0 |
| 20260502061756 | 25 | 354 | 0.0 | 0.0 | 0.00 | 3.05 | 0.00 | 35 | 1017.9 |
| 20260502061016 | 25 | 354 | 0.0 | 1.6 | 0.00 | 3.05 | 0.00 | 39 | 1018.1 |
| 20260502060517 | 25 | 354 | 0.0 | 6.4 | 0.00 | 3.05 | 0.00 | 53 | 1018.1 |
| 20260502060016 | 25 | 354 | 1.6 | 6.4 | 0.00 | 3.05 | 0.00 | 72 | 1018.2 |
| 20260502055505 | 25 | 333 | 0.0 | 0.0 | 0.00 | 3.05 | 0.00 | 84 | 1018.2 |
| 20260502054956 | 25 | 333 | 0.0 | 0.0 | 0.00 | 3.05 | 0.00 | 89 | 1018.2 |
| 20260502054455 | 25 | 333 | 0.0 | 0.0 | 0.00 | 3.05 | 0.00 | 90 | 1018.1 |
| 20260502053952 | 25 | 333 | 0.0 | 0.0 | 0.00 | 3.05 | 0.00 | 87 | 1018.0 |
| 20260502053451 | 25 | 333 | 0.0 | 0.0 | 0.00 | 3.05 | 0.00 | 83 | 1017.9 |
| 20260502052939 | 25 | 333 | 0.0 | 0.0 | 0.00 | 3.05 | 0.00 | 76 | 1017.9 |
| 20260502052658 | 25 | 333 | 0.0 | 0.0 | 0.00 | 3.05 | 0.00 | 73 | 1017.9 |
| 20260502051928 | 25 | 333 | 0.0 | 0.0 | 0.00 | 3.05 | 0.00 | 64 | 1017.8 |
| 20260502051422 | 25 | 333 | 0.0 | 0.0 | 0.00 | 3.05 | 0.00 | 52 | 1017.8 |
| 20260502050918 | 25 | 333 | 0.0 | 0.0 | 0.00 | 3.05 | 0.00 | 42 | 1017.9 |
| 20260502050404 | 25 | 333 | 0.0 | 0.0 | 0.00 | 3.05 | 0.00 | 36 | 1017.8 |
| 20260502045859 | 25 | 333 | 0.0 | 0.0 | 0.00 | 3.05 | 3.05 | 28 | 1017.8 |
| 20260502045358 | 25 | 333 | 0.0 | 0.0 | 0.00 | 3.05 | 3.05 | 23 | 1017.8 |
| 20260502044837 | 25 | 333 | 0.0 | 0.0 | 0.00 | 3.05 | 3.05 | 14 | 1017.8 |
| 20260502044303 | 25 | 333 | 0.0 | 0.0 | 0.00 | 3.05 | 3.05 | 7 | 1017.8 |
| 20260502043759 | 25 | 333 | 0.0 | 0.0 | 0.00 | 3.07 | 3.05 | 5 | 1017.8 |
| 20260502043253 | 25 | 333 | 0.0 | 0.0 | 0.00 | 3.07 | 3.05 | 4 | 1017.8 |
| 20260502042744 | 25 | 333 | 0.0 | 0.0 | 0.00 | 3.07 | 3.05 | 2 | 1017.8 |
| 20260502042217 | 25 | 333 | 0.0 | 0.0 | 0.00 | 3.07 | 3.05 | 1 | 1017.8 |
| 20260502041711 | 26 | 333 | 0.0 | 4.8 | 0.00 | 3.07 | 3.05 | 100 | 1017.8 |
| 20260502041203 | 25 | 333 | 0.0 | 8.0 | 0.00 | 3.07 | 3.05 | 100 | 1017.8 |
| 20260502040657 | 26 | 42 | 0.0 | 8.0 | 0.00 | 3.07 | 3.05 | 100 | 1017.8 |
| 20260502040145 | 26 | 0 | 0.0 | 0.0 | 0.00 | 3.07 | 3.05 | 100 | 1017.7 |
| 20260502035626 | 26 | 0 | 0.0 | 0.0 | 0.00 | 3.07 | 3.05 | 100 | 1017.7 |
| 20260502035116 | 26 | 0 | 0.0 | 0.0 | 0.00 | 3.07 | 3.05 | 100 | 1017.8 |
| 20260502034614 | 26 | 0 | 0.0 | 0.0 | 0.00 | 3.10 | 3.05 | 100 | 1017.9 |
| 20260502034108 | 26 | 0 | 0.0 | 0.0 | 0.00 | 3.10 | 3.05 | 100 | 1017.9 |
| 20260502033604 | 26 | 0 | 0.0 | 0.0 | 0.00 | 3.10 | 3.05 | 100 | 1018.0 |
| 20260502033059 | 26 | 0 | 0.0 | 3.2 | 0.00 | 3.10 | 3.05 | 100 | 1018.0 |
| 20260502032542 | 26 | 0 | 0.0 | 4.8 | 0.00 | 3.10 | 3.05 | 100 | 1017.8 |
| 20260502032030 | 25 | 0 | 0.0 | 4.8 | 0.00 | 3.10 | 3.05 | 100 | 1017.8 |
| 20260502031527 | 26 | 351 | 1.6 | 4.8 | 0.00 | 3.10 | 3.05 | 100 | 1017.7 |
| 20260502031011 | 26 | 71 | 0.0 | 0.0 | 0.00 | 3.10 | 3.05 | 100 | 1017.7 |
| 20260502030506 | 26 | 71 | 0.0 | 6.4 | 0.00 | 3.12 | 3.05 | 100 | 1017.6 |
| 20260502030001 | 26 | 71 | 0.0 | 9.7 | 0.00 | 3.12 | 3.05 | 100 | 1017.5 |
| 20260502025457 | 26 | 71 | 0.0 | 9.7 | 0.00 | 3.12 | 3.05 | 100 | 1017.3 |
| 20260502024942 | 26 | 12 | 0.0 | 9.7 | 0.00 | 3.15 | 3.05 | 100 | 1017.1 |
| 20260502024426 | 26 | 12 | 1.6 | 12.9 | 0.00 | 3.17 | 3.05 | 100 | 1017.1 |
| 20260502023925 | 26 | 355 | 3.2 | 12.9 | 0.00 | 3.23 | 3.05 | 100 | 1017.1 |
| 20260502023423 | 26 | 7 | 1.6 | 12.9 | 0.00 | 3.33 | 3.05 | 100 | 1017.1 |
| 20260502022920 | 26 | 348 | 0.0 | 12.9 | 0.00 | 3.33 | 3.05 | 100 | 1017.0 |
| 20260502022415 | 26 | 358 | 1.6 | 12.9 | 0.00 | 3.33 | 3.05 | 100 | 1016.8 |
| 20260502021858 | 26 | 61 | 0.0 | 12.9 | 0.00 | 3.33 | 3.05 | 100 | 1016.6 |
| 20260502021351 | 26 | 25 | 1.6 | 12.9 | 0.00 | 3.33 | 3.05 | 100 | 1016.6 |
| 20260502020850 | 26 | 347 | 1.6 | 14.5 | 0.00 | 3.33 | 3.05 | 100 | 1016.6 |
| 20260502020343 | 25 | 358 | 1.6 | 14.5 | 0.00 | 3.33 | 3.05 | 100 | 1016.4 |
| 20260502015830 | 25 | 81 | 0.0 | 22.5 | 0.00 | 3.33 | 3.05 | 100 | 1016.3 |
| 20260502015328 | 25 | 26 | 0.0 | 22.5 | 0.00 | 3.33 | 3.05 | 100 | 1016.3 |
| 20260502014816 | 25 | 9 | 3.2 | 17.7 | 0.00 | 3.33 | 3.05 | 100 | 1016.2 |
| 20260502014316 | 25 | 42 | 0.0 | 12.9 | 0.00 | 3.33 | 3.05 | 100 | 1016.0 |
| 20260502013852 | 25 | 358 | 0.0 | 12.9 | 0.00 | 3.33 | 3.05 | 100 | 1015.9 |
| 20260502013810 | 25 | 11 | 0.0 | 12.9 | 0.00 | 3.33 | 3.05 | 100 | 1015.9 |
| 20260502012222 | 25 | 1 | 0.0 | 19.3 | 0.00 | 3.33 | 3.05 | 100 | 1015.7 |
| 20260502011721 | 25 | 52 | 3.2 | 19.3 | 0.00 | 3.33 | 3.05 | 100 | 1015.6 |
| 20260502011213 | 25 | 59 | 0.0 | 14.5 | 0.00 | 3.33 | 3.05 | 100 | 1015.6 |
| 20260502010703 | 25 | 66 | 1.6 | 14.5 | 0.00 | 3.33 | 3.05 | 100 | 1015.4 |
| 20260502010157 | 25 | 106 | 3.2 | 22.5 | 0.00 | 3.33 | 3.05 | 100 | 1015.2 |
| 20260502005700 | 25 | 25 | 0.0 | 22.5 | 0.00 | 3.33 | 3.05 | 100 | 1015.1 |
| 20260502005148 | 25 | 49 | 8.0 | 20.9 | 0.03 | 3.33 | 3.05 | 100 | 1014.9 |
| 20260502004642 | 25 | 82 | 3.2 | 17.7 | 0.03 | 3.33 | 3.05 | 2 | 1014.8 |
| 20260502004142 | 25 | 15 | 1.6 | 17.7 | 0.03 | 3.33 | 3.05 | 3 | 1014.8 |
| 20260502003638 | 25 | 46 | 3.2 | 14.5 | 0.03 | 3.33 | 3.05 | 3 | 1014.8 |
| 20260502003129 | 25 | 39 | 1.6 | 22.5 | 0.03 | 3.33 | 3.05 | 4 | 1014.8 |
| 20260502002619 | 25 | 0 | 3.2 | 22.5 | 0.03 | 3.33 | 3.05 | 4 | 1014.7 |
| 20260502002115 | 25 | 14 | 1.6 | 19.3 | 0.03 | 3.33 | 3.05 | 6 | 1014.6 |
| 20260502001614 | 25 | 358 | 0.0 | 17.7 | 0.03 | 3.33 | 3.05 | 4 | 1014.3 |